sat.trackr.live / text

‹ back to catalog

STARLINK-33611

NORAD 63279 · 2025-053Q

PAYLOAD ACTIVE UNKNOWN

§ Identity

Operator
Country
US
Launch date
2025-03-15
Launch site
AFETR
Launch vehicle
Mass (kg)
RCS (m²)

Purposes: comms

External: N2YO · Heavens-Above · Gunter

§ Orbital elements

Epoch: 2026-09-20T14:15:54.158976Z

Period
94.27 min
Inclination
43.0010°
Eccentricity
0.0000527
Mean motion
15.27585093 rev/d
Perigee alt
482.7 km
Apogee alt
483.4 km
Semi-major
6,861.2 km
B*
3.9642e-4
RAAN
217.4211°
Arg perigee
312.9985°
Mean anomaly
47.0822°
Rev number
8,615

§ Raw data

STARLINK-336111 63279U 25053Q   26263.59437684  .00010664  00000+0  39642-3 0  99902 63279  43.0010 217.4211 0000527 312.9985  47.0822 15.27585093 86154

JSON: /api/v1/satellites/63279 · /tle

For live sub-satellite position, see the globe view (requires WebGL).

§ Visibility from observer

Set your observer location to see the next 7 days of passes ≥ 10°. The values pass through the URL so the page stays shareable.

No JS? Fill the form by hand. The geolocation button needs JavaScript.